Location: Vinland
(47.7731°N, 122.6974°W)
Time: 19:44:44
(UTC+00:00)

Vanguard 1 Rocket - Pass Details

Date: 21 March 2023
Orbit: 655 x 4220 km, 34.3° (Epoch: 05 June)

Event Time Altitude Azimuth Distance (km) Brightness Sun altitude
Rises 05:58:41 0° 207° (SSW) 8,358 12.1 -33.3°
Reaches altitude 10° 06:06:33 10° 196° (SSW) 7,027 11.6 -34.2°
Enters shadow 06:10:10 15° 189° (S) 6,410 11.3 -34.6°
